[[{"header":{"parameterUnit":"m.s-1","parameterCategory":1,"la1":30.2992,"la2":30.254,"lo1":-89.0895,"lo2":-89.0443,"dy":0.0025,"dx":0.0025,"nx":19,"ny":19,"refTime":"2026-03-17T09:00:00:Z","depth":0,"parameterNumber":2,"parameterNumberName":"U-component_of_WINDS"},"data":[0,0,0,1.3454,1.3455,1.3506,1.3507,1.3566,1.3566,0,0,0,0,0,0,0,0,0,0,0,1.3435,1.3436,1.3454,1.3455,1.3506,1.3507,1.3566,1.3566,0,0,0,0,0,0,0,0,0,0,0,1.3435,1.3435,1.3436,1.3456,1.3506,1.3507,1.3566,1.3529,0,0,0,0,0,0,0,0,0,0,1.3481,1.3459,1.3435,1.3436,1.3456,1.3506,1.3507,1.3528,1.3532,1.354,0,1.3546,0,1.3557,1.357,1.357,0,0,0,1.3459,1.3456,1.3473,1.3436,1.3456,1.3506,1.3484,1.353,1.3534,1.3545,1.3547,1.355,1.3558,1.357,1.3571,1.3609,1.3609,0,0,1.3456,1.3442,1.347,1.3476,1.3467,1.3483,1.3486,1.3533,1.3534,1.3547,1.3551,1.3559,1.3571,1.3571,1.3609,1.3609,0,0,0,1.3446,1.344,1.3457,1.3473,1.3483,1.3484,1.3488,1.3532,1.3538,1.3552,1.356,1.3571,1.3572,1.3609,1.3609,1.3597,0,0,0,1.3444,1.3434,1.3455,1.3447,1.3482,1.3508,1.3486,1.3535,1.3541,1.356,1.3571,1.3572,1.3609,1.3609,1.3598,1.3594,0,0,0,1.3433,1.3433,1.3439,1.3447,1.3468,1.3508,1.3517,1.3537,1.3546,1.357,1.3572,1.3609,1.3609,1.3598,1.3595,1.36,0,0,0,1.3418,1.3428,1.3439,1.3453,1.3468,1.35,1.3517,1.3542,1.3561,1.3571,1.3609,1.3609,1.3598,1.3595,1.3601,1.3603,1.3602,0,0,1.3423,1.3428,1.3438,1.3449,1.3476,1.3493,1.352,1.355,1.3565,1.3593,1.3595,1.3598,1.3595,1.3601,1.3606,1.3605,0,0,0,1.3435,1.3442,1.3452,1.347,1.3494,1.3514,1.3542,1.3554,1.3579,1.3577,1.3602,1.3601,1.3605,1.3606,1.3606,1.361,1.3609,1.3609,1.3609,1.3423,1.3441,1.3459,1.3483,1.3501,1.353,1.3546,1.3567,1.358,1.3586,1.3594,1.3595,1.3597,1.3597,1.3601,1.3597,1.3597,1.3597,1.3597,1.3432,1.3444,1.3463,1.3486,1.3506,1.3526,1.3555,1.3564,1.3586,1.359,1.3595,1.3598,1.3595,1.36,1.3596,1.3597,1.3597,1.3597,1.3597,1.3425,1.3435,1.3449,1.3478,1.3498,1.3523,1.3543,1.356,1.3577,1.3581,1.3592,1.3593,1.3595,1.3585,1.3585,1.3585,1.3585,1.3585,1.3585,1.3413,1.343,1.3444,1.3471,1.3485,1.3507,1.3537,1.3552,1.3572,1.3584,1.3584,1.3597,1.3592,1.359,1.3586,1.3586,1.3586,1.3586,1.3586,1.3415,1.3418,1.344,1.3455,1.3488,1.3507,1.353,1.3558,1.3573,1.3582,1.3595,1.3589,1.3595,1.3595,1.3594,1.3591,1.3591,1.3591,1.3591,1.341,1.3415,1.3442,1.3464,1.3488,1.3511,1.3536,1.356,1.3586,1.3596,1.3599,1.3599,1.3599,1.3606,1.3606,1.3605,1.3604,1.3604,1.3604,1.3412,1.342,1.3438,1.3463,1.3491,1.3514,1.3539,1.3564,1.3594,1.3605,1.3605,1.3604,1.3604,1.3604,1.3614,1.3614,1.3613,0,0]},{"header":{"parameterUnit":"m.s-1","parameterCategory":1,"la1":30.2992,"la2":30.254,"lo1":-89.0895,"lo2":-89.0443,"dy":0.0025,"dx":0.0025,"nx":19,"ny":19,"refTime":"2026-03-17T09:00:00:Z","depth":0,"parameterNumber":3,"parameterNumberName":"V-component_of_WINDS"},"data":[0,0,0,-4.2908,-4.2909,-4.2991,-4.2991,-4.3094,-4.3095,0,0,0,0,0,0,0,0,0,0,0,-4.2883,-4.2884,-4.2907,-4.291,-4.2991,-4.2991,-4.3094,-4.3095,0,0,0,0,0,0,0,0,0,0,0,-4.2883,-4.2884,-4.2885,-4.291,-4.2991,-4.2991,-4.3094,-4.3032,0,0,0,0,0,0,0,0,0,0,-4.2953,-4.2931,-4.2884,-4.2885,-4.291,-4.2991,-4.2991,-4.3029,-4.3036,-4.3057,0,-4.3076,0,-4.3087,-4.3102,-4.3102,0,0,0,-4.2909,-4.2925,-4.2948,-4.2885,-4.2911,-4.2991,-4.2954,-4.3033,-4.3041,-4.3066,-4.3078,-4.3081,-4.3089,-4.3102,-4.3103,-4.3229,-4.323,0,0,-4.2904,-4.2898,-4.2943,-4.2953,-4.2942,-4.2951,-4.2957,-4.3038,-4.305,-4.3078,-4.3084,-4.3091,-4.3103,-4.3104,-4.3228,-4.3229,0,0,0,-4.2892,-4.2894,-4.2915,-4.2949,-4.2964,-4.2954,-4.296,-4.3046,-4.3053,-4.3085,-4.3092,-4.3104,-4.3105,-4.3228,-4.3229,-4.3255,0,0,0,-4.2889,-4.2887,-4.2913,-4.2909,-4.2962,-4.3006,-4.2966,-4.3048,-4.3057,-4.3091,-4.3104,-4.3106,-4.3227,-4.3228,-4.3253,-4.3268,0,0,0,-4.2878,-4.2886,-4.2898,-4.2909,-4.2944,-4.3005,-4.3017,-4.305,-4.3061,-4.3102,-4.3106,-4.3227,-4.3228,-4.3251,-4.3265,-4.3302,0,0,0,-4.2864,-4.2917,-4.2898,-4.2961,-4.2943,-4.3021,-4.3016,-4.3074,-4.3112,-4.3104,-4.3227,-4.3229,-4.325,-4.3263,-4.3299,-4.3332,-4.3345,0,0,-4.2927,-4.2925,-4.2962,-4.2948,-4.3028,-4.3009,-4.3092,-4.3131,-4.314,-4.3199,-4.3202,-4.3254,-4.3265,-4.3301,-4.3416,-4.3426,0,0,0,-4.298,-4.3008,-4.303,-4.3068,-4.3101,-4.3132,-4.316,-4.3175,-4.3226,-4.3169,-4.3276,-4.3283,-4.3304,-4.332,-4.3329,-4.3349,-4.3235,-4.3235,-4.3235,-4.306,-4.3072,-4.3135,-4.3157,-4.3193,-4.3224,-4.3254,-4.328,-4.3277,-4.3303,-4.332,-4.3389,-4.3407,-4.3414,-4.3434,-4.3337,-4.3338,-4.3338,-4.3338,-4.3156,-4.3197,-4.3197,-4.3259,-4.3271,-4.3322,-4.3354,-4.3351,-4.3401,-4.3376,-4.3395,-4.3368,-4.3425,-4.3443,-4.334,-4.3339,-4.3339,-4.3339,-4.3339,-4.321,-4.3233,-4.3252,-4.331,-4.3353,-4.3372,-4.3422,-4.3429,-4.3436,-4.3455,-4.3476,-4.3476,-4.3478,-4.3465,-4.3465,-4.3465,-4.3465,-4.3466,-4.3466,-4.326,-4.3281,-4.3323,-4.3366,-4.3393,-4.3429,-4.3462,-4.3488,-4.3519,-4.352,-4.3521,-4.3517,-4.3428,-4.3406,-4.347,-4.3469,-4.3468,-4.3468,-4.3468,-4.3354,-4.3335,-4.3399,-4.3427,-4.348,-4.3523,-4.3533,-4.3586,-4.3609,-4.3633,-4.3627,-4.3559,-4.3556,-4.3549,-4.3531,-4.3623,-4.3623,-4.3623,-4.3623,-4.3401,-4.3402,-4.3471,-4.3515,-4.3558,-4.3575,-4.3648,-4.3675,-4.3699,-4.3714,-4.3702,-4.3678,-4.3671,-4.3672,-4.3663,-4.3647,-4.3766,-4.3766,-4.3766,-4.3461,-4.3467,-4.3528,-4.3554,-4.3597,-4.3633,-4.3703,-4.3752,-4.3775,-4.3772,-4.3726,-4.372,-4.3683,-4.367,-4.3665,-4.365,-4.362,0,0]}]]